Weather History for Miles City, MT

Change the Weather History Date:

Tuesday, October 16, 2012

  Actual Average Record
Temperature  
Mean Temperature 50 °F 47 °F  
Max Temperature 56 °F 59 °F 90 °F (1991)
Min Temperature 43 °F 34 °F 19 °F (1976)
Degree Days  
Heating Degree Days 15 18  
Month to date heating degree days 270 247  
Since 1 July heating degree days 363 483  
Cooling Degree Days 0 0  
Month to date cooling degree days 0 0  
Year to date cooling degree days 1107 728  
Moisture  
Dew Point 43 °F    
Average Humidity 68    
Maximum Humidity 93    
Minimum Humidity 42    
Precipitation  
Precipitation 0.14 in 0.03 in 0.66 in (1990)
Month to date precipitation 0.55 0.55  
Year to date precipitation 5.18 11.39  
Sea Level Pressure  
Sea Level Pressure 29.49 in    
Wind  
Wind Speed 13 mph (SW)    
Max Wind Speed 41 mph    
Max Gust Speed 59 mph    
Visibility 10 miles    
Events Rain    
T = Trace of Precipitation, MM = Missing Value Source: NWS Daily Summary

Daily Weather History Graph

Daily Weather History Graph

Search for Another Location

Airport:

Trip Planner

Search our weather history database for the weather conditions in past years. The results will help you decide how hot, cold, wet, or windy it might be!

Date:

Astronomy

Oct. 16, 2012 Rise Set
Actual Time 7:23 AM MDT 6:14 PM MDT
Civil Twilight 6:52 AM MDT 6:44 PM MDT
Nautical Twilight 6:17 AM MDT 7:19 PM MDT
Astronomical Twilight 5:42 AM MDT 7:54 PM MDT
Moon 8:56 AM MDT (10/16) 6:52 PM MDT (10/16)
Length of Visible Light 11h 51m
Length of Day
10h 51m
New Moon, 2% of the Moon is Illuminated
Oct 16
New Moon
Oct 21
First Quarter
Oct 29
Full
Nov 6
Last Quarter
Nov 13
New

Hourly Weather History & Observations

Time (MDT) Temp. Windchill Dew Point Humidity Pressure Visibility Wind Dir Wind Speed Gust Speed Precip Events Conditions
12:53 AM 50.0 °F - 46.0 °F 86% 29.72 in 10.0 mi West 5.8 mph - N/A   Mostly Cloudy
1:53 AM 48.9 °F - 45.0 °F 86% 29.70 in 10.0 mi WSW 5.8 mph - N/A   Clear
2:53 AM 48.0 °F - 44.1 °F 86% 29.68 in 10.0 mi SSW 4.6 mph - N/A   Clear
3:53 AM 45.0 °F 41.8 °F 43.0 °F 93% 29.64 in 10.0 mi SSE 5.8 mph - N/A   Clear
4:53 AM 45.0 °F 40.6 °F 43.0 °F 93% 29.62 in 10.0 mi SSE 8.1 mph - N/A   Clear
6:53 AM 44.1 °F 39.0 °F 42.1 °F 93% 29.56 in 10.0 mi SSE 9.2 mph - N/A   Clear
7:53 AM 45.0 °F 41.8 °F 42.1 °F 90% 29.54 in 10.0 mi SSE 5.8 mph - N/A   Clear
8:53 AM 46.9 °F - 43.0 °F 86% 29.50 in 10.0 mi SSE 9.2 mph - N/A   Mostly Cloudy
9:53 AM 50.0 °F - 45.0 °F 83% 29.45 in 10.0 mi South 12.7 mph - N/A   Scattered Clouds
10:53 AM 50.0 °F - 45.0 °F 83% 29.40 in 10.0 mi SSE 12.7 mph - 0.00 in Rain Light Rain
11:53 AM 52.0 °F - 46.9 °F 83% 29.37 in 10.0 mi SSE 8.1 mph - 0.01 in   Overcast
12:53 PM 54.0 °F - 46.9 °F 77% 29.34 in 10.0 mi SE 5.8 mph - 0.01 in   Overcast
1:53 PM 53.1 °F - 48.9 °F 86% 29.39 in 6.0 mi NNW 11.5 mph - 0.03 in Rain Rain
2:53 PM 54.0 °F - 51.1 °F 90% 29.37 in 8.0 mi Variable 5.8 mph - 0.06 in Rain Light Rain
3:53 PM 54.0 °F - 52.0 °F 93% 29.37 in 10.0 mi SW 8.1 mph - 0.00 in   Scattered Clouds
4:53 PM 54.0 °F - 51.1 °F 90% 29.36 in 10.0 mi SW 10.4 mph - N/A   Clear
5:53 PM 53.1 °F - 50.0 °F 89% 29.37 in 10.0 mi SW 9.2 mph - N/A   Clear
6:53 PM 55.0 °F - 48.0 °F 77% 29.41 in 10.0 mi WNW 20.7 mph 26.5 mph N/A   Overcast
7:53 PM 52.0 °F - 43.0 °F 71% 29.43 in 10.0 mi WNW 13.8 mph - N/A   Overcast
8:53 PM 52.0 °F - 32.0 °F 47% 29.46 in 10.0 mi WNW 20.7 mph 32.2 mph N/A   Mostly Cloudy
9:53 PM 50.0 °F - 28.0 °F 43% 29.49 in 10.0 mi WNW 24.2 mph 34.5 mph N/A   Clear
10:53 PM 48.9 °F - 28.9 °F 46% 29.53 in 10.0 mi West 19.6 mph 26.5 mph N/A   Partly Cloudy
11:53 PM 46.9 °F - 34.0 °F 61% 29.54 in 10.0 mi WNW 34.5 mph 54.1 mph N/A   Scattered Clouds